Home > Weather > Geneva > Past weeks

Flag for Switzerland Weather for the Past 2 Weeks in Geneva, Geneva, Switzerland

Now
47 °F

Cool.


Feels Like: 42 °F
Forecast: 40 / 60 °F
Wind: 14 mph from Northeast

Location: Geneve-Cointrin

Current Time: May 2, 2016 at 10:33:10 AM

Latest Report: May 2, 2016 at 9:00 AM


Visibility: N/A

Pressure: 30.18 "Hg

Humidity: 84%

Dew Point: 43 °F

Location of GenevaLocation

Historic Weather in Geneva — Graph

°F

Geneva Temperature Yesterday

Maximum temperature yesterday: 47 °F (at 4:00 PM)
Minimum temperature yesterday: 42 °F (at 10:00 AM)
Average temperature yesterday: 46 °F

High & Low Weather Summary for the Past Weeks

 TemperatureHumidityPressure
High67 °F (Apr 21, 4:00 PM)95% (Apr 18, 10:00 PM)30.31 "Hg (Apr 18, 10:00 PM)
Low33 °F (Apr 28, 2:00 AM)27% (Apr 29, 8:00 PM)29.77 "Hg (Apr 26, 7:00 PM)
Average48 °F65%30.04 "Hg
* Reported Apr 17 1:00 PM — May 2 9:00 AM, Geneva, Weather by CustomWeather, © 2016

Note: Actual official high and low records may vary slightly from our data, if they occured in-between our weather recording intervals... More about our weather records

Advertising

Geneva Weather History for the Previous 24 Hours

Scroll right to see more
 ConditionsComfort  
Time TempWeatherWind HumidityBarometerVisibility
9:00 AM
Mon, May 2
47 °FCool.14 mph84%30.18 "HgN/A
8:00 AM46 °FFog.9 mph86%30.19 "Hg9 mi
6:00 AM44 °FQuite cool.5 mph91%30.19 "HgN/A
3:00 AM44 °FQuite cool.2 mph94%30.20 "HgN/A
2:00 AM44 °FOvercast.2 mph93%30.22 "Hg8 mi
1:00 AM44 °FQuite cool.2 mph92%30.24 "HgN/A
12:00 AM44 °FQuite cool.2 mph94%30.24 "HgN/A
11:00 PM
Sun, May 1
44 °FSprinkles. Overcast.7 mph91%30.26 "Hg6 mi
10:00 PM46 °FCool.3 mph80%30.24 "HgN/A
9:00 PM46 °FCool.6 mph73%30.22 "HgN/A
8:00 PM46 °FOvercast.5 mph73%30.20 "Hg37 mi
7:00 PM47 °FCool.8 mph67%30.19 "HgN/A
6:00 PM47 °FCool.10 mph66%30.19 "HgN/A
5:00 PM47 °FOvercast.10 mph70%30.16 "Hg31 mi
4:00 PM47 °FCool.9 mph68%30.14 "HgN/A
3:00 PM46 °FCool.10 mph72%30.14 "HgN/A
2:00 PM46 °FSprinkles. Overcast.7 mph68%30.13 "Hg31 mi
1:00 PM46 °FCool.5 mph70%30.11 "HgN/A
12:00 PM46 °FCool.9 mph72%30.11 "HgN/A
11:00 AM44 °FOvercast.5 mph78%30.10 "Hg31 mi
10:00 AM42 °FQuite cool.2 mph86%30.09 "HgN/A
Weather by CustomWeather, © 2016

See weather overviewHow to use our weather pages